EN

Hourly Weather Ormanshy

Today, 25 November, Wednesday

Time Temperature Precipitation Wind Pressure Humidity
00:00 -6°C° 0 mm 1 mps 647 mmHg 55%
01:00 -6°C° 0 mm 1 mps 647 mmHg 55%
02:00 -6°C° 0 mm 1 mps 647 mmHg 55%
03:00 -6°C° 0 mm 1 mps 647 mmHg 55%
04:00 -6°C° 0 mm 1 mps 647 mmHg 55%
05:00 -6°C° 0 mm 1 mps 647 mmHg 58%
06:00 -6°C° 0 mm 1 mps 647 mmHg 58%
07:00 -6°C° 0 mm 1 mps 648 mmHg 59%
08:00 -6°C° 0 mm 1 mps 648 mmHg 59%
09:00 -4°C° 0 mm 1 mps 648 mmHg 63%
10:00 -3°C° 0 mm 1 mps 649 mmHg 66%
11:00 -1°C° 0 mm 1 mps 650 mmHg 69%
12:00 -1°C° 0 mm 1 mps 649 mmHg 72%
13:00 -1°C° 0 mm 1 mps 649 mmHg 75%
14:00 -1°C° 0 mm 1 mps 649 mmHg 78%
15:00 -2°C° 0.1 mm 1 mps 649 mmHg 82%
16:00 -2°C° 0.1 mm 1 mps 649 mmHg 87%
17:00 -3°C° 0.1 mm 1 mps 649 mmHg 92%
18:00 -3°C° 0.1 mm 1 mps 649 mmHg 91%
19:00 -3°C° 0.1 mm 1 mps 650 mmHg 89%
20:00 -6°C° 0.1 mm 2 mps 650 mmHg 88%
21:00 -6°C° 0 mm 2 mps 650 mmHg 85%
22:00 -6°C° 0 mm 2 mps 649 mmHg 83%
23:00 -6°C° 0 mm 2 mps 649 mmHg 80%

Tomorrow, 26 November, Thursday

Time Temperature Precipitation Wind Pressure Humidity
00:00 -7°C° 0 mm 2 mps 649 mmHg 77%
01:00 -7°C° 0 mm 2 mps 649 mmHg 74%
02:00 -7°C° 0 mm 2 mps 649 mmHg 72%
03:00 -7°C° 0 mm 2 mps 649 mmHg 69%
04:00 -8°C° 0 mm 3 mps 649 mmHg 67%
05:00 -8°C° 0 mm 3 mps 649 mmHg 64%
06:00 -8°C° 0 mm 3 mps 649 mmHg 63%
07:00 -8°C° 0 mm 3 mps 649 mmHg 61%
08:00 -8°C° 0 mm 3 mps 649 mmHg 60%
09:00 -6°C° 0 mm 3 mps 650 mmHg 63%
10:00 -5°C° 0 mm 3 mps 650 mmHg 67%
11:00 -2°C° 0 mm 3 mps 650 mmHg 70%
12:00 -1°C° 0 mm 2 mps 650 mmHg 72%
13:00 -1°C° 0 mm 2 mps 650 mmHg 73%
14:00 +1°C° 0 mm 2 mps 650 mmHg 75%
15:00 -1°C° 0 mm 2 mps 650 mmHg 70%
16:00 -1°C° 0 mm 2 mps 650 mmHg 66%
17:00 -2°C° 0 mm 2 mps 649 mmHg 61%
18:00 -2°C° 0 mm 2 mps 649 mmHg 59%
19:00 -1°C° 0 mm 2 mps 649 mmHg 57%
20:00 -1°C° 0 mm 3 mps 649 mmHg 56%
21:00 -1°C° 0 mm 3 mps 649 mmHg 54%
22:00 -1°C° 0 mm 3 mps 649 mmHg 53%
23:00 -1°C° 0 mm 3 mps 649 mmHg 52%

Day after tomorrow, 27 November, Friday

Time Temperature Precipitation Wind Pressure Humidity
00:00 0°C° 0 mm 3 mps 649 mmHg 52%
01:00 0°C° 0 mm 3 mps 649 mmHg 52%
02:00 +1°C° 0 mm 2 mps 649 mmHg 52%
03:00 0°C° 0 mm 3 mps 648 mmHg 52%
04:00 0°C° 0 mm 3 mps 648 mmHg 52%
05:00 0°C° 0 mm 3 mps 648 mmHg 52%
06:00 0°C° 0 mm 3 mps 648 mmHg 54%
07:00 0°C° 0 mm 3 mps 648 mmHg 56%
08:00 +1°C° 0 mm 3 mps 648 mmHg 58%
09:00 +1°C° 0 mm 3 mps 647 mmHg 61%
10:00 +2°C° 0 mm 3 mps 647 mmHg 64%
11:00 +2°C° 0 mm 3 mps 647 mmHg 67%
12:00 +3°C° 0 mm 2 mps 647 mmHg 67%
13:00 +4°C° 0 mm 2 mps 647 mmHg 68%
14:00 +5°C° 0 mm 1 mps 647 mmHg 69%
15:00 +4°C° 0 mm 1 mps 647 mmHg 66%
16:00 +4°C° 0 mm 1 mps 648 mmHg 63%
17:00 +3°C° 0 mm 1 mps 648 mmHg 60%
18:00 +3°C° 0 mm 1 mps 648 mmHg 60%
19:00 +2°C° 0 mm 2 mps 648 mmHg 61%
20:00 +1°C° 0 mm 3 mps 648 mmHg 62%
21:00 +1°C° 0.1 mm 3 mps 648 mmHg 63%
22:00 +2°C° 0.1 mm 2 mps 648 mmHg 65%
23:00 +2°C° 0.1 mm 2 mps 648 mmHg 66%

28 November, Saturday

Time Temperature Precipitation Wind Pressure Humidity
00:00 +1°C° 0.1 mm 2 mps 649 mmHg 70%
01:00 -1°C° 0.1 mm 2 mps 649 mmHg 75%
02:00 -2°C° 0.1 mm 2 mps 649 mmHg 79%
03:00 -3°C° 2.7 mm 2 mps 650 mmHg 85%
04:00 -4°C° 2.7 mm 3 mps 651 mmHg 91%
05:00 -5°C° 2.7 mm 3 mps 652 mmHg 98%
06:00 -6°C° 3.1 mm 3 mps 653 mmHg 98%
07:00 -6°C° 3.1 mm 3 mps 654 mmHg 98%
08:00 -7°C° 3.1 mm 3 mps 655 mmHg 98%
09:00 -7°C° 0.5 mm 3 mps 656 mmHg 97%
10:00 -6°C° 0.5 mm 3 mps 657 mmHg 96%
11:00 -6°C° 0.5 mm 3 mps 657 mmHg 96%
12:00 -5°C° 0 mm 2 mps 658 mmHg 94%
13:00 -5°C° 0 mm 2 mps 658 mmHg 92%
14:00 -3°C° 0 mm 1 mps 658 mmHg 90%
15:00 -4°C° 0 mm 1 mps 658 mmHg 86%
16:00 -6°C° 0 mm 1 mps 658 mmHg 82%
17:00 -8°C° 0 mm 1 mps 657 mmHg 78%
18:00 -9°C° 0 mm 2 mps 657 mmHg 72%
19:00 -10°C° 0 mm 2 mps 657 mmHg 66%
20:00 -12°C° 0 mm 3 mps 657 mmHg 59%
21:00 -12°C° 0 mm 3 mps 657 mmHg 56%
22:00 -13°C° 0 mm 3 mps 656 mmHg 53%
23:00 -13°C° 0 mm 3 mps 656 mmHg 50%

29 November, Sunday

Time Temperature Precipitation Wind Pressure Humidity
00:00 -12°C° 0 mm 3 mps 656 mmHg 48%
01:00 -12°C° 0 mm 3 mps 656 mmHg 46%
02:00 -12°C° 0 mm 3 mps 656 mmHg 43%
03:00 -12°C° 0 mm 3 mps 656 mmHg 42%
04:00 -12°C° 0 mm 3 mps 656 mmHg 41%
05:00 -12°C° 0 mm 3 mps 655 mmHg 40%
06:00 -10°C° 0 mm 3 mps 655 mmHg 40%
07:00 -10°C° 0 mm 3 mps 655 mmHg 40%
08:00 -10°C° 0 mm 3 mps 655 mmHg 39%
09:00 -7°C° 0 mm 2 mps 655 mmHg 46%
10:00 -5°C° 0 mm 2 mps 656 mmHg 53%
11:00 -1°C° 0 mm 1 mps 656 mmHg 60%
12:00 -1°C° 0 mm 1 mps 656 mmHg 61%
13:00 0°C° 0 mm 1 mps 655 mmHg 62%
14:00 -1°C° 0 mm 0 mps 655 mmHg 64%
15:00 -1°C° 0 mm 1 mps 654 mmHg 59%
16:00 -3°C° 0 mm 1 mps 654 mmHg 55%
17:00 -4°C° 0 mm 1 mps 653 mmHg 50%
18:00 -6°C° 0 mm 2 mps 653 mmHg 48%
19:00 -6°C° 0 mm 2 mps 653 mmHg 47%
20:00 -6°C° 0 mm 2 mps 653 mmHg 45%
21:00 -6°C° 0 mm 2 mps 653 mmHg 44%
22:00 -6°C° 0 mm 2 mps 653 mmHg 42%
23:00 -6°C° 0 mm 2 mps 652 mmHg 41%

30 November, Monday

Time Temperature Precipitation Wind Pressure Humidity
00:00 -6°C° 0 mm 2 mps 652 mmHg 40%
01:00 -6°C° 0 mm 2 mps 652 mmHg 39%
02:00 -6°C° 0 mm 2 mps 652 mmHg 39%
03:00 -6°C° 0 mm 2 mps 651 mmHg 38%
04:00 -5°C° 0 mm 2 mps 651 mmHg 38%
05:00 -5°C° 0 mm 2 mps 651 mmHg 37%
06:00 -5°C° 0 mm 2 mps 651 mmHg 37%
07:00 -5°C° 0 mm 2 mps 651 mmHg 37%
08:00 -5°C° 0 mm 2 mps 651 mmHg 37%
09:00 -3°C° 0 mm 2 mps 651 mmHg 44%
10:00 -2°C° 0 mm 2 mps 651 mmHg 51%
11:00 +1°C° 0 mm 2 mps 652 mmHg 57%
12:00 +1°C° 0 mm 2 mps 651 mmHg 59%
13:00 +1°C° 0 mm 2 mps 651 mmHg 60%
14:00 +2°C° 0 mm 2 mps 650 mmHg 62%
15:00 +1°C° 0 mm 2 mps 650 mmHg 57%
16:00 -1°C° 0 mm 2 mps 649 mmHg 51%
17:00 -2°C° 0 mm 2 mps 648 mmHg 46%
18:00 -2°C° 0 mm 2 mps 648 mmHg 44%
19:00 -2°C° 0 mm 3 mps 648 mmHg 42%
20:00 -2°C° 0 mm 3 mps 648 mmHg 41%
21:00 -2°C° 0 mm 3 mps 647 mmHg 41%
22:00 -2°C° 0 mm 3 mps 647 mmHg 42%
23:00 -2°C° 0 mm 3 mps 647 mmHg 42%
Show more

We Need Your Consent

Meteoprog and our Service Providers may store and access personal data such as cookies, device identifiers or other similar technologies on your device and process such data to personalise content and ads, as well as provide social media features and to analyse the traffic.

  • Store and/or access information on your device

    Cookies, device identifiers or other information can be stored or accessed on your device for the purposes indicated above.

  • Personalised ads and content, ad and content measurement, audience insights, and products development

    Ads and content can be personalised based on a profile. More data can be added to better personalise ads and content. Ad and content performance can be measured. Insights about the audience who saw the ads and content can be derived. Such data can be used to develop or improve user’s experience, systems and software.

By clicking ‘I Agree’ you will allow the use of indicated cookies, device identifiers, web beacons or other similar technologies. Your settings can be changed in the browser on your device.

For certain purposes, legitimate interests may be relied on, rather than consent. You can read more about this in our Privacy and Cookie Policy.